KCMH Airport Diagram

We have created a template for each of the higher traffic airports in the vZID airspace. They include KCMH, KCRW, KCVG, KDAY, KIND, KLEX and KSDF. You wil find usefull information including the airport diagram, weather, and specific airport procedures.

KCMH Weather

[Source: ADDS]
METAR
KCMH 171251Z 22003KT 6SM BR FEW140 M01/M02 A3006 RMK AO2 SLP186 T10061017 =
KCMH 171138Z 1712/1812 18006KT 5SM BR SCT200 FM171300 25007KT P6SM SKC FM171800 31011KT P6SM BKN035 FM172300 32007KT P6SM SCT035 FM180200 34004KT P6SM SKC
TAF
KCMH 171138Z 1712/1812 18006KT 5SM BR SCT200 FM171300 25007KT P6SM SKC FM171800 31011KT P6SM BKN035 FM172300 32007KT P6SM SCT035 FM180200 34004KT P6SM SKC =

KCMH Operations

Calm wind runway(s) up to 10 kts: Arriving/Departing 28L/R

Typically, Rw 10R/28L for departures to the West and South and Rw 10L/28R for departures to the North and East.

FBOs: Lane Aviation midfield near Tower, Signature South of Twy B.

Advise ATC if you have updated scenery for KCMH as there are significant changes to the runway/taxiways on the South side of the airport. Default scenery does not match the Airport Diagram available through the usual sources.

JSN Epic template designed by JoomlaShine.com